1528891201.12,14172,21.69,73450.0,14.37,7.09,7.83,0,*4F
1528891202.39,14173,21.69,73452.0,14.37,7.27,7.95,0,*45
1528891203.66,14174,21.69,73450.5,14.37,7.27,7.77,0,*4E
1528891204.9,14175,21.69,73450.8,14.35,7.23,7.61,0,*4E
1528891206.16,14176,21.69,73448.8,14.37,7.19,7.65,0,*42
1528891207.39,14177,21.69,73450.3,14.37,7.09,7.65,0,*42
1528891208.62,14178,21.69,73450.3,14.35,6.53,7.11,0,*42
1528891209.81,14179,21.69,73452.0,14.35,6.21,6.83,0,*4C
1528891211.03,14180,21.69,73454.3,14.33,6.11,6.73,0,*40
1528891212.26,14181,21.69,73450.3,14.31,5.85,6.65,0,*4A
1528891213.47,14182,21.69,73448.3,14.27,6.07,7.15,0,*41
1528891214.71,14183,21.69,73448.5,14.25,6.47,7.41,0,*47
1528891215.93,14184,21.69,73450.8,14.27,6.51,7.29,0,*4B
1528891217.16,14185,21.69,73448.0,14.25,6.65,7.33,0,*44
1528891218.34,14186,21.69,73448.3,14.23,6.83,7.37,0,*4D
1528891219.58,14187,21.69,73446.0,14.21,6.75,7.23,0,*42
1528891220.81,14188,21.69,73446.0,14.21,5.99,6.53,0,*4A
1528891222.01,14189,21.69,73450.3,14.17,5.73,6.29,0,*47
1528891223.22,14190,21.69,73444.8,14.17,6.25,6.87,0,*4B
1528891224.48,14191,21.69,73446.0,14.15,6.43,6.91,0,*4F
1528891225.68,14192,21.69,73444.3,14.13,6.11,6.61,0,*42
1528891226.91,14193,21.69,73448.3,14.09,5.73,6.43,0,*4F
1528891228.14,14194,21.69,73446.3,14.03,5.67,6.51,0,*44
1528891229.32,14195,21.69,73448.8,14.05,6.25,7.09,0,*4A
1528891230.54,14196,21.69,73444.8,14.05,7.05,7.77,0,*43
1528891231.76,14197,21.69,73446.0,14.03,7.09,7.83,0,*43
1528891232.95,14198,21.69,73444.8,14.05,7.29,7.97,0,*4D
1528891234.15,14199,21.69,73450.0,14.03,6.21,6.83,0,*47
1528891235.35,14200,21.69,73444.5,14.01,5.51,6.07,0,*4E
1528891236.61,14201,21.69,73444.3,13.99,4.93,5.27,0,*47
1528891237.88,14202,21.69,73446.0,13.95,4.31,5.01,0,*44
1528891239.12,14203,21.69,73446.8,13.93,3.97,4.75,0,*4A
1528891240.34,14204,21.69,73446.3,13.89,4.71,5.19,0,*42
1528891241.55,14205,21.69,73446.0,13.89,4.67,5.15,0,*48
1528891242.8,14206,21.69,73444.0,13.81,5.27,5.73,0,*46
1528891244.01,14207,21.69,73444.0,13.81,5.07,5.67,0,*40
1528891245.21,14208,21.69,73444.3,13.79,4.81,5.27,0,*43
1528891246.45,14209,21.69,73446.8,13.77,6.07,6.51,0,*42
1528891247.7,14210,21.69,73450.8,13.77,6.39,6.73,0,*47
1528891248.94,14211,21.69,73446.0,13.73,5.67,5.93,0,*47
1528891250.21,14212,21.69,73446.5,13.73,4.97,5.27,0,*45
1528891251.43,14213,21.69,73446.5,13.73,4.53,5.11,0,*49
1528891252.67,14214,21.69,73442.3,13.69,3.71,4.37,0,*47
1528891253.91,14215,21.69,73444.8,13.65,4.41,4.75,0,*48
1528891255.17,14216,21.69,73450.3,13.65,4.79,5.27,0,*46
1528891256.38,14217,21.69,73446.0,13.59,5.85,6.03,0,*4F
1528891257.59,14218,21.69,73446.3,13.59,5.99,6.13,0,*4C
1528891258.8,14219,21.69,73442.8,13.57,6.11,6.11,0,*42
1528891260.06,14220,21.69,73444.0,13.57,6.43,6.39,0,*45
1528891261.3,14221,21.69,73446.5,13.55,5.81,5.71,0,*44
1528891262.48,14222,21.69,73444.8,13.53,5.95,5.71,0,*44
1528891263.69,14223,21.69,73444.5,13.53,4.89,4.31,0,*4C
1528891264.9,14224,21.69,73446.8,13.51,3.89,2.99,0,*4A
1528891266.13,14225,21.69,73446.8,13.47,2.81,2.35,0,*43
1528891267.36,14226,21.69,73448.0,13.45,2.55,2.39,0,*47
1528891268.57,14227,21.69,73450.8,13.41,3.07,2.95,0,*42
1528891269.75,14228,21.69,73444.8,13.37,4.33,4.07,0,*41
1528891270.93,14229,21.69,73446.0,13.37,4.33,4.15,0,*43
1528891272.14,14230,21.69,73452.3,13.35,4.07,3.89,0,*4C
1528891273.34,14231,21.69,73448.5,13.33,3.71,3.63,0,*49
1528891274.58,14232,21.69,73448.3,13.33,3.11,3.15,0,*4D
1528891275.81,14233,21.69,73448.5,13.31,2.31,2.39,0,*42
1528891277.05,14234,21.69,73446.5,13.29,2.13,2.17,0,*40
1528891278.29,14235,21.69,73446.0,13.25,2.81,2.89,0,*41
1528891279.5,14236,21.69,73444.3,13.25,3.97,4.07,0,*44
1528891280.7,14237,21.69,73446.8,13.25,3.49,3.29,0,*4D
1528891281.89,14238,21.69,73444.5,13.25,4.23,4.57,0,*47
1528891283.09,14239,21.69,73444.0,13.25,4.67,4.81,0,*4D
1528891284.27,14240,21.69,73444.8,13.25,5.33,5.37,0,*4F
1528891285.48,14241,21.69,73446.0,13.25,5.63,5.51,0,*4B
1528891286.69,14242,21.69,73446.5,13.27,6.25,6.25,0,*4B
1528891287.89,14243,21.69,73444.8,13.25,6.75,6.61,0,*4D
1528891289.15,14244,21.69,73448.3,13.27,7.27,7.11,0,*48
1528891290.37,14245,21.69,73450.0,13.27,7.23,7.05,0,*48
1528891291.61,14246,21.69,73444.0,13.29,6.57,6.35,0,*45
1528891292.81,14247,21.69,73448.3,13.29,6.83,6.61,0,*4C
1528891294.02,14248,21.69,73444.0,13.29,6.97,6.73,0,*45
1528891295.2,14249,21.69,73446.5,13.29,7.37,6.97,0,*45
1528891296.41,14250,21.69,73444.8,13.29,7.29,7.15,0,*49
1528891297.6,14251,21.69,73444.5,13.29,7.41,7.29,0,*49
1528891298.83,14252,21.69,73450.0,13.31,7.61,7.45,0,*4B
1528891300.07,14253,21.69,73446.0,13.29,7.87,7.61,0,*4D
1528891301.28,14254,21.69,73446.0,13.31,8.09,7.79,0,*43
1528891302.48,14255,21.69,73448.5,13.31,7.51,7.01,0,*4F
1528891303.74,14256,21.69,73446.5,13.31,7.19,6.65,0,*43
1528891304.97,14257,21.69,73446.0,13.31,6.97,6.53,0,*40
1528891306.18,14258,21.69,73444.8,13.33,6.97,6.65,0,*48
1528891307.39,14259,21.69,73444.8,13.35,6.21,6.11,0,*41
1528891308.62,14260,21.69,73444.3,13.33,5.81,5.55,0,*47
1528891309.82,14261,21.69,73446.8,13.35,5.37,5.19,0,*45
1528891311.04,14262,21.69,73444.8,13.31,5.23,5.15,0,*4B
1528891312.25,14263,21.69,73442.5,13.31,5.23,5.23,0,*4F
1528891313.45,14264,21.69,73446.8,13.29,5.51,5.29,0,*4E
1528891314.64,14265,21.69,73446.5,13.29,5.41,5.11,0,*45
1528891315.83,14266,21.69,73444.8,13.25,5.29,5.19,0,*4C
1528891317.03,14267,21.69,73442.5,13.25,5.49,5.27,0,*46
1528891318.22,14268,21.69,73444.5,13.25,5.59,5.23,0,*4C
1528891319.46,14269,21.69,73444.5,13.23,4.71,4.79,0,*4E
1528891320.7,14270,21.69,73440.5,13.23,4.79,4.93,0,*4A
1528891321.88,14271,21.69,73444.3,13.23,5.37,5.59,0,*47
1528891323.08,14272,21.69,73442.5,13.23,5.85,6.07,0,*45
1528891324.29,14273,21.69,73444.0,13.21,5.23,5.19,0,*46
1528891325.5,14274,21.69,73444.8,13.21,5.59,5.67,0,*45
1528891326.72,14275,21.69,73442.8,13.21,6.11,5.99,0,*4A
1528891327.94,14276,21.69,73446.8,13.19,6.73,6.73,0,*41
1528891329.14,14277,21.69,73446.8,13.19,7.15,7.09,0,*4D
1528891330.34,14278,21.69,73446.3,13.19,7.05,6.69,0,*44
1528891331.57,14279,21.69,73444.3,13.19,6.47,6.51,0,*49
1528891332.75,14280,21.69,73446.0,13.19,7.05,6.97,0,*42
1528891333.96,14281,21.69,73450.0,13.19,7.29,7.15,0,*46
1528891335.16,14282,21.69,73450.0,13.19,7.15,7.05,0,*4B
1528891336.38,14283,21.69,73444.3,13.17,6.75,6.53,0,*41
1528891337.58,14284,21.69,73448.8,13.19,7.29,7.19,0,*4F
1528891338.79,14285,21.69,73448.8,13.19,7.15,6.97,0,*46
1528891339.98,14286,21.69,73448.0,13.19,6.79,6.73,0,*44
1528891341.21,14287,21.69,73448.0,13.19,7.27,7.19,0,*42
1528891342.42,14288,21.69,73448.3,13.19,7.29,7.27,0,*4E
1528891343.65,14289,21.69,73450.3,13.19,7.19,7.19,0,*41
1528891344.82,14290,21.69,73448.8,13.19,6.83,6.83,0,*49
1528891346.04,14291,21.69,73450.8,13.19,6.61,6.69,0,*40
1528891347.24,14292,21.69,73450.3,13.19,6.69,6.79,0,*4A
1528891348.46,14293,21.69,73452.0,13.17,6.69,6.79,0,*45
1528891349.71,14294,21.69,73450.8,13.17,6.91,7.23,0,*4B
1528891350.94,14295,21.69,73450.0,13.17,7.11,7.37,0,*46
1528891352.2,14296,21.69,73448.3,13.17,7.15,7.61,0,*42
1528891353.46,14297,21.69,73446.8,13.17,7.11,7.73,0,*44
1528891354.69,14298,21.69,73450.8,13.19,7.19,7.73,0,*4D
1528891355.89,14299,21.69,73450.8,13.19,7.05,7.47,0,*46
1528891357.12,14300,21.69,73450.0,13.17,7.11,7.45,0,*4E
1528891358.3,14301,21.69,73450.3,13.19,7.37,7.59,0,*48
1528891359.52,14302,21.69,73448.3,13.19,7.15,7.47,0,*44
1528891360.7,14303,21.69,73448.0,13.19,7.09,7.37,0,*4F
1528891361.88,14304,21.69,73450.0,13.19,6.83,7.09,0,*46
1528891363.08,14305,21.69,73450.5,13.19,6.83,7.15,0,*4A
1528891364.31,14306,21.69,73450.8,13.19,6.73,7.15,0,*46
1528891365.49,14307,21.69,73446.5,13.19,7.09,7.41,0,*4A
1528891366.69,14308,21.69,73446.3,13.19,7.15,7.41,0,*48
1528891367.91,14309,21.69,73448.3,13.17,7.01,7.23,0,*46
1528891369.11,14310,21.69,73448.0,13.19,7.05,7.19,0,*4D
1528891370.37,14311,21.69,73448.5,13.17,7.23,7.27,0,*4B
1528891371.6,14312,21.69,73444.8,13.17,6.91,6.75,0,*46
1528891372.83,14313,21.69,73446.5,13.11,5.81,5.51,0,*46
1528891374.06,14314,21.69,73446.3,13.13,5.33,5.27,0,*4B
1528891375.28,14315,21.69,73450.8,13.09,5.37,5.23,0,*41
1528891376.45,14316,21.69,73448.5,13.07,5.45,5.41,0,*4D
1528891377.68,14317,21.69,73446.3,13.05,5.55,5.29,0,*41
1528891378.89,14318,21.69,73446.0,13.05,5.29,5.19,0,*46
1528891380.07,14319,21.69,73450.0,13.03,5.29,5.29,0,*42
1528891381.28,14320,21.69,73448.0,13.03,6.11,6.17,0,*4E
1528891382.52,14321,21.69,73446.0,13.01,6.13,6.25,0,*4E
1528891383.73,14322,21.69,73446.8,12.99,5.71,5.81,0,*47
1528891384.96,14323,21.69,73448.3,12.99,5.77,5.81,0,*40
1528891386.17,14324,21.69,73448.0,12.97,5.23,5.41,0,*44
1528891387.37,14325,21.69,73448.5,12.95,5.51,5.63,0,*42
1528891388.6,14326,21.69,73446.0,12.95,5.85,5.89,0,*4C
1528891389.85,14327,21.69,73450.0,12.95,6.35,6.47,0,*44
1528891391.05,14328,21.69,73444.5,12.91,5.99,6.21,0,*4A
1528891392.27,14329,21.69,73446.3,12.89,5.93,6.03,0,*48
1528891393.5,14330,21.69,73448.5,12.89,6.39,6.39,0,*4A
1528891394.69,14331,21.75,73450.8,12.85,5.99,6.03,0,*47
1528891395.91,14332,21.69,73448.8,12.85,6.43,6.57,0,*41
1528891397.09,14333,21.69,73444.3,12.85,6.79,6.93,0,*41
1528891398.34,14334,21.75,73448.5,12.87,6.39,6.51,0,*4E
1528891399.58,14335,21.69,73448.3,12.85,6.35,6.51,0,*41
1528891400.81,14336,21.69,73450.3,12.87,5.81,6.07,0,*4F
1528891402.02,14337,21.69,73446.8,12.85,6.29,6.39,0,*40
1528891403.25,14338,21.69,73450.5,12.85,6.51,6.69,0,*45
1528891404.48,14339,21.69,73448.3,12.83,5.85,5.95,0,*48
1528891405.66,14340,21.75,73448.8,12.81,6.07,6.25,0,*45
1528891406.87,14341,21.69,73450.3,12.81,6.03,6.17,0,*41
1528891408.09,14342,21.69,73448.3,12.81,6.29,6.51,0,*48
1528891409.27,14343,21.69,73448.8,12.81,6.03,6.29,0,*4E
1528891410.53,14344,21.69,73448.8,12.79,5.93,6.17,0,*49
1528891411.77,14345,21.69,73448.3,12.79,6.03,6.43,0,*43
1528891412.98,14346,21.69,73448.3,12.77,6.25,6.69,0,*42
1528891414.19,14347,21.69,73448.5,12.77,6.03,6.51,0,*4C
1528891415.4,14348,21.69,73448.3,12.77,6.11,6.39,0,*4E
1528891416.61,14349,21.69,73448.5,12.77,6.03,6.35,0,*40
1528891417.82,14350,21.69,73450.0,12.77,5.89,6.25,0,*48
1528891419.04,14351,21.69,73448.3,12.73,5.89,6.33,0,*4A
1528891420.27,14352,21.69,73450.8,12.73,6.17,6.53,0,*4B
1528891421.47,14353,21.75,73448.8,12.73,5.85,6.29,0,*4F
1528891422.68,14354,21.75,73450.8,12.73,6.21,6.53,0,*48
1528891423.92,14355,21.69,73446.5,12.75,6.33,6.51,0,*4E
1528891425.13,14356,21.69,73444.3,12.73,5.63,5.85,0,*47
1528891426.34,14357,21.69,73450.8,12.73,5.67,5.89,0,*4E
1528891427.59,14358,21.69,73450.0,12.67,6.25,6.43,0,*44
1528891428.82,14359,21.69,73450.3,12.67,6.29,6.53,0,*48
1528891430.03,14360,21.69,73448.0,12.69,5.93,6.25,0,*4F
1528891431.27,14361,21.69,73450.3,12.69,5.93,6.17,0,*4F
1528891432.44,14362,21.69,73446.8,12.69,6.07,6.29,0,*4F
1528891433.65,14363,21.69,73448.8,12.67,6.07,6.25,0,*4C
1528891434.91,14364,21.69,73450.0,12.67,5.73,6.13,0,*4E
1528891436.16,14365,21.69,73450.0,12.67,5.55,5.81,0,*43
1528891437.38,14366,21.69,73450.3,12.67,6.07,6.33,0,*4E
1528891438.61,14367,21.69,73446.5,12.65,6.13,6.39,0,*42
1528891439.81,14368,21.69,73448.3,12.65,6.03,6.29,0,*4D
1528891441.04,14369,21.69,73450.0,12.65,6.47,6.61,0,*40
1528891442.28,14370,21.69,73448.8,12.65,6.51,6.69,0,*47
1528891443.53,14371,21.69,73446.5,12.63,6.33,6.47,0,*48
1528891444.76,14372,21.75,73448.8,12.65,6.47,6.57,0,*4F
1528891446.0,14373,21.69,73448.3,12.65,6.51,6.61,0,*4C
1528891447.19,14374,21.75,73452.0,12.65,6.79,6.93,0,*4C
1528891448.37,14375,21.69,73448.0,12.65,6.83,6.79,0,*4C
1528891449.62,14376,21.69,73448.5,12.63,6.53,6.57,0,*48
1528891450.81,14377,21.75,73452.5,12.65,6.93,7.09,0,*49
1528891452.04,14378,21.69,73448.0,12.65,6.73,6.69,0,*4F
1528891453.26,14379,21.69,73450.3,12.65,6.83,6.91,0,*46
1528891454.47,14380,21.75,73452.5,12.67,6.97,7.05,0,*4B
1528891455.68,14381,21.69,73450.0,12.65,6.73,6.79,0,*48
1528891456.94,14382,21.69,73450.3,12.67,6.73,6.73,0,*43
1528891458.2,14383,21.69,73448.8,12.67,6.65,6.61,0,*46
1528891459.46,14384,21.69,73450.3,12.67,6.51,6.65,0,*42
1528891460.69,14385,21.69,73448.3,12.67,6.29,6.33,0,*4F
1528891461.91,14386,21.75,73454.3,12.67,6.25,6.33,0,*40
1528891463.17,14387,21.69,73448.3,12.67,6.13,6.17,0,*42
1528891464.42,14388,21.69,73450.3,12.67,6.33,6.43,0,*4E
1528891465.68,14389,21.75,73448.8,12.67,5.85,5.81,0,*4C
1528891466.91,14390,21.75,73450.3,12.67,5.55,5.49,0,*4D
1528891468.16,14391,21.75,73450.8,12.63,5.73,5.73,0,*45
1528891469.41,14392,21.69,73448.3,12.63,5.55,5.55,0,*46
1528891470.62,14393,21.69,73448.5,12.63,5.49,5.49,0,*47
1528891471.85,14394,21.69,73448.3,12.63,5.15,5.27,0,*41
1528891473.06,14395,21.69,73446.8,12.63,5.19,5.19,0,*41
1528891474.27,14396,21.69,73450.0,12.63,5.15,5.15,0,*42
1528891475.48,14397,21.69,73448.5,12.63,5.41,5.37,0,*42
1528891476.68,14398,21.69,73448.0,12.59,5.01,4.81,0,*4C
1528891477.92,14399,21.75,73446.8,12.59,4.75,4.63,0,*43
1528891479.09,14400,21.69,73448.3,12.59,5.15,4.89,0,*47
1528891480.31,14401,21.75,73448.0,12.57,5.33,5.11,0,*4C
1528891481.52,14402,21.69,73446.0,12.57,5.49,5.23,0,*43
1528891482.73,14403,21.69,73448.0,12.57,5.49,5.19,0,*4B
1528891483.96,14404,21.69,73446.0,12.57,5.77,5.41,0,*4C
1528891485.22,14405,21.75,73450.0,12.57,6.17,5.81,0,*44
1528891486.42,14406,21.75,73448.8,12.59,6.53,6.07,0,*44
1528891487.66,14407,21.75,73450.0,12.59,6.65,6.17,0,*41
1528891488.87,14408,21.69,73446.0,12.59,6.51,6.03,0,*4C
1528891490.11,14409,21.69,73444.8,12.61,6.17,5.51,0,*40
1528891491.33,14410,21.69,73446.0,12.61,6.13,5.63,0,*4D
1528891492.54,14411,21.69,73442.3,12.59,6.51,6.03,0,*44
1528891493.76,14412,21.75,73446.0,12.61,6.43,5.99,0,*4F
1528891494.98,14413,21.75,73448.5,12.61,6.43,5.95,0,*42
1528891496.19,14414,21.75,73446.3,12.59,6.13,5.63,0,*42
1528891497.4,14415,21.69,73442.5,12.63,6.07,5.67,0,*4B
1528891498.64,14416,21.69,73444.5,12.63,6.21,5.85,0,*40
1528891499.88,14417,21.69,73446.5,12.63,6.25,5.85,0,*45
1528891501.12,14418,21.69,73444.3,12.63,6.17,5.67,0,*47
1528891502.38,14419,21.75,73450.3,12.63,6.17,5.85,0,*4A
1528891503.6,14420,21.75,73446.8,12.63,6.25,5.95,0,*40
1528891504.85,14421,21.75,73446.0,12.63,6.17,5.89,0,*4D
1528891506.08,14422,21.75,73448.3,12.63,6.07,5.77,0,*4E
1528891507.29,14423,21.75,73446.8,12.63,6.25,6.07,0,*4B
1528891508.51,14424,21.75,73444.8,12.63,6.21,5.99,0,*4C
1528891509.75,14425,21.69,73444.3,12.63,5.85,5.67,0,*41
1528891510.96,14426,21.69,73444.3,12.61,6.17,5.95,0,*45
1528891512.17,14427,21.75,73444.0,12.61,5.99,5.85,0,*40
1528891513.39,14428,21.75,73446.8,12.61,5.99,5.85,0,*4F
1528891514.58,14429,21.75,73446.5,12.61,6.25,6.11,0,*44
1528891515.8,14430,21.75,73446.3,12.61,6.35,6.21,0,*4E
1528891517.04,14431,21.69,73444.0,12.63,6.25,6.17,0,*49
1528891518.25,14432,21.69,73442.0,12.61,6.33,6.17,0,*4F
1528891519.47,14433,21.75,73446.0,12.63,6.33,6.21,0,*49
1528891520.68,14434,21.69,73440.5,12.63,6.21,6.11,0,*4E
1528891521.9,14435,21.69,73442.3,12.61,5.99,5.85,0,*43
1528891523.12,14436,21.69,73440.8,12.63,5.77,5.63,0,*4A
1528891524.33,14437,21.69,73442.0,12.59,5.85,5.63,0,*4F
1528891525.56,14438,21.69,73444.8,12.61,5.89,5.77,0,*42
1528891526.74,14439,21.69,73440.5,12.59,5.71,5.63,0,*4A
1528891527.92,14440,21.75,73444.3,12.59,5.63,5.45,0,*43
1528891529.13,14441,21.69,73440.0,12.59,5.85,5.63,0,*4E
1528891530.36,14442,21.75,73440.5,12.59,5.93,5.73,0,*4B
1528891531.59,14443,21.75,73442.8,12.59,5.93,5.73,0,*4A
1528891532.82,14444,21.75,73444.8,12.59,5.93,5.73,0,*4D
1528891534.05,14445,21.69,73442.3,12.57,5.77,5.59,0,*40
1528891535.24,14446,21.75,73444.3,12.55,6.11,6.03,0,*4E
1528891536.45,14447,21.69,73440.0,12.57,5.71,5.67,0,*49
1528891537.62,14448,21.75,73446.5,12.55,5.49,5.41,0,*4B
1528891538.83,14449,21.69,73440.5,12.53,5.63,5.63,0,*44
1528891540.07,14450,21.75,73442.3,12.53,5.77,5.77,0,*4C
1528891541.3,14451,21.75,73440.3,12.53,5.73,5.63,0,*4C
1528891542.55,14452,21.69,73440.3,12.53,5.55,5.51,0,*4A
1528891543.78,14453,21.69,73440.5,12.51,5.85,5.77,0,*40
1528891544.96,14454,21.69,73442.0,12.51,6.07,5.99,0,*4E
1528891546.15,14455,21.69,73442.5,12.51,5.95,5.95,0,*4B
1528891547.33,14456,21.75,73442.8,12.51,6.11,6.07,0,*4F
1528891548.52,14457,21.75,73444.3,12.51,5.95,5.99,0,*45
1528891549.76,14458,21.75,73444.3,12.51,5.89,5.89,0,*46
1528891550.94,14459,21.75,73444.3,12.51,5.99,6.07,0,*43
1528891552.16,14460,21.75,73442.0,12.51,6.33,6.35,0,*4B
1528891553.35,14461,21.69,73440.8,12.51,6.21,6.25,0,*48
1528891554.58,14462,21.69,73442.0,12.51,6.13,6.13,0,*4F
1528891555.83,14463,21.75,73442.5,12.51,6.35,6.35,0,*4E
1528891557.05,14464,21.75,73446.8,12.51,6.53,6.57,0,*4D
1528891558.23,14465,21.75,73446.0,12.51,6.07,6.11,0,*4F
1528891559.44,14466,21.69,73440.5,12.49,6.11,6.21,0,*41
1528891560.67,14467,21.75,73444.8,12.45,6.73,7.01,0,*4B
1528891561.93,14468,21.75,73444.0,12.49,6.91,7.11,0,*45
1528891563.14,14469,21.69,73440.5,12.49,6.83,6.97,0,*48
1528891564.41,14470,21.75,73444.0,12.49,6.87,7.11,0,*4B
1528891565.65,14471,21.75,73444.3,12.49,6.65,6.97,0,*49
1528891566.87,14472,21.75,73440.8,12.53,6.69,6.93,0,*49
1528891568.04,14473,21.75,73442.3,12.51,7.01,7.33,0,*4E
1528891569.24,14474,21.69,73442.3,12.53,7.01,7.33,0,*4B
1528891570.46,14475,21.75,73442.0,12.53,6.79,7.11,0,*44
1528891571.68,14476,21.75,73444.0,12.51,6.21,6.43,0,*4E
1528891572.9,14477,21.75,73442.3,12.51,6.21,6.47,0,*4B
1528891574.11,14478,21.69,73438.8,12.51,6.25,6.57,0,*41
1528891575.37,14479,21.75,73440.0,12.49,6.17,6.47,0,*49
1528891576.61,14480,21.75,73444.0,12.49,6.43,6.75,0,*4F
1528891577.85,14481,21.75,73444.0,12.49,6.21,6.61,0,*4F
1528891579.06,14482,21.75,73446.0,12.49,5.71,6.03,0,*4E
1528891580.29,14483,21.75,73442.5,12.45,5.81,6.07,0,*48
1528891581.52,14484,21.75,73440.8,12.45,5.71,5.93,0,*4E
1528891582.75,14485,21.69,73440.8,12.45,5.59,5.89,0,*4E
1528891583.98,14486,21.75,73444.8,12.41,5.77,6.11,0,*47
1528891585.2,14487,21.75,73444.8,12.43,5.55,5.81,0,*4E
1528891586.44,14488,21.75,73444.5,12.41,5.73,6.03,0,*4E
1528891587.65,14489,21.75,73446.8,12.39,5.59,5.93,0,*42
1528891588.85,14490,21.75,73444.3,12.39,5.85,6.21,0,*41
1528891590.06,14491,21.75,73440.3,12.39,6.39,6.79,0,*49
1528891591.29,14492,21.75,73446.0,12.37,5.95,6.39,0,*45
1528891592.5,14493,21.75,73444.8,12.37,5.95,6.33,0,*4E
1528891593.7,14494,21.75,73442.3,12.37,5.15,5.63,0,*47
1528891594.91,14495,21.69,73442.8,12.37,5.71,6.21,0,*41
1528891596.16,14496,21.69,73440.0,12.37,5.73,6.17,0,*45
1528891597.4,14497,21.75,73440.5,12.35,5.89,6.17,0,*43
1528891598.63,14498,21.75,73442.5,12.33,5.77,5.99,0,*4E
1528891599.84,14499,21.75,73444.5,12.35,5.89,6.25,0,*4C
1528891601.08,14500,21.69,73440.3,12.35,6.13,6.39,0,*40
1528891602.32,14501,21.75,73440.0,12.35,6.39,6.51,0,*47
1528891603.55,14502,21.69,73440.8,12.35,6.35,6.57,0,*4E
1528891604.81,14503,21.75,73442.5,12.33,6.43,6.53,0,*4C
1528891606.04,14504,21.75,73440.8,12.33,6.65,6.83,0,*42
1528891607.31,14505,21.75,73442.0,12.33,6.35,6.43,0,*4A
1528891608.53,14506,21.75,73442.8,12.33,6.25,6.25,0,*48
1528891609.79,14507,21.75,73442.8,12.33,6.57,6.53,0,*4D
1528891611.03,14508,21.69,73438.3,12.31,6.43,6.47,0,*40
1528891612.21,14509,21.75,73446.3,12.31,6.21,6.25,0,*41
1528891613.45,14510,21.75,73440.5,12.31,6.35,6.35,0,*4D
1528891614.68,14511,21.75,73440.0,12.29,6.69,6.79,0,*44
1528891615.93,14512,21.75,73440.5,12.29,6.65,6.69,0,*4A
1528891617.15,14513,21.75,73442.0,12.31,6.53,6.57,0,*4A
1528891618.39,14514,21.75,73440.8,12.29,6.29,6.43,0,*4C
1528891619.66,14515,21.75,73440.8,12.29,6.39,6.51,0,*4F
1528891620.86,14516,21.75,73440.0,12.29,6.07,6.29,0,*4E
1528891622.07,14517,21.75,73440.5,12.29,5.99,6.11,0,*40
1528891623.29,14518,21.75,73440.8,12.29,6.21,6.33,0,*4F
1528891624.47,14519,21.75,73442.0,12.23,5.67,5.71,0,*40
1528891625.65,14520,21.75,73436.0,12.23,5.95,6.25,0,*45
1528891626.86,14521,21.69,73438.8,12.23,6.25,6.39,0,*41
1528891628.1,14522,21.75,73442.3,12.21,6.25,6.35,0,*4C
1528891629.32,14523,21.75,73438.3,12.21,5.29,5.51,0,*43
1528891630.51,14524,21.75,73440.3,12.19,5.23,5.41,0,*44
1528891631.7,14525,21.75,73438.5,12.19,5.19,5.23,0,*48
1528891632.9,14526,21.75,73442.5,12.17,5.29,5.49,0,*4A
1528891634.08,14527,21.75,73440.0,12.15,5.23,5.37,0,*4A
1528891635.29,14528,21.75,73440.8,12.15,4.79,4.89,0,*4F
1528891636.53,14529,21.75,73442.5,12.13,4.93,5.07,0,*4B
1528891637.73,14530,21.75,73442.3,12.13,5.07,5.33,0,*48
1528891638.94,14531,21.75,73442.3,12.11,5.63,5.77,0,*49
1528891640.14,14532,21.75,73440.0,12.11,5.63,5.77,0,*4A
1528891641.35,14533,21.69,73440.8,12.09,5.59,5.67,0,*4A
1528891642.55,14534,21.75,73444.0,12.07,5.77,5.95,0,*42
1528891643.75,14535,21.75,73442.3,12.09,6.11,6.21,0,*42
1528891644.98,14536,21.75,73440.5,12.07,6.47,6.69,0,*40
1528891646.17,14537,21.75,73440.8,12.07,6.29,6.33,0,*46
1528891647.37,14538,21.75,73444.3,12.07,6.53,6.75,0,*46
1528891648.62,14539,21.75,73444.0,12.09,6.69,6.87,0,*4D
1528891649.83,14540,21.75,73440.8,12.09,6.11,6.21,0,*40
1528891651.01,14541,21.75,73442.3,12.07,6.11,6.11,0,*4C
1528891652.22,14542,21.75,73444.0,12.07,6.21,6.39,0,*46
1528891653.45,14543,21.75,73442.3,12.07,6.43,6.57,0,*4B
1528891654.65,14544,21.75,73440.5,12.07,6.57,6.79,0,*45
1528891655.88,14545,21.75,73436.5,12.07,6.47,6.53,0,*4D
1528891657.08,14546,21.75,73438.8,12.07,6.65,6.79,0,*46
1528891658.29,14547,21.69,73438.3,12.07,6.75,6.87,0,*47
1528891659.52,14548,21.75,73440.5,12.05,7.11,7.29,0,*4C
1528891660.7,14549,21.75,73440.5,12.07,6.75,6.79,0,*48
1528891661.9,14550,21.75,73440.5,12.07,6.75,6.91,0,*46
1528891663.11,14551,21.75,73442.0,12.07,7.09,7.27,0,*41
1528891664.31,14552,21.75,73442.5,12.07,6.87,7.01,0,*41
1528891665.54,14553,21.75,73438.8,12.07,6.43,6.65,0,*4B
1528891666.75,14554,21.75,73442.8,12.07,6.53,6.75,0,*4C
1528891667.95,14555,21.75,73438.0,12.07,6.33,6.57,0,*4B
1528891669.19,14556,21.75,73436.8,12.01,6.21,6.51,0,*4B
1528891670.44,14557,21.75,73436.0,12.01,6.21,6.47,0,*4D
1528891671.68,14558,21.75,73438.0,12.01,5.67,5.81,0,*4A
1528891672.91,14559,21.75,73438.5,12.01,5.33,5.51,0,*47
1528891674.11,14560,21.75,73440.5,11.97,5.29,5.49,0,*43
1528891675.38,14561,21.75,73440.0,11.95,4.79,5.01,0,*48
1528891676.58,14562,21.75,73436.8,11.93,5.01,5.33,0,*42
1528891677.76,14563,21.75,73440.3,11.89,5.37,5.59,0,*41
1528891678.97,14564,21.75,73442.3,11.91,5.41,5.59,0,*4E
1528891680.17,14565,21.75,73442.5,11.89,4.85,4.97,0,*4C
1528891681.41,14566,21.75,73440.0,11.87,5.67,5.89,0,*42
1528891682.61,14567,21.75,73436.3,11.85,6.29,6.53,0,*4C
1528891683.85,14568,21.75,73436.0,11.85,6.61,6.91,0,*41
1528891685.06,14569,21.75,73442.3,11.85,6.43,6.83,0,*43
1528891686.26,14570,21.75,73440.8,11.85,6.61,7.01,0,*40
1528891687.46,14571,21.75,73442.8,11.85,5.59,5.81,0,*43
1528891688.67,14572,21.75,73438.8,11.81,5.71,5.93,0,*4D
1528891689.89,14573,21.75,73440.3,11.81,5.77,5.93,0,*4A
1528891691.1,14574,21.75,73440.8,11.81,5.81,6.03,0,*4E
1528891692.35,14575,21.75,73440.8,11.79,6.25,6.51,0,*42
1528891693.53,14576,21.75,73440.5,11.81,5.99,6.25,0,*41
1528891694.74,14577,21.75,73436.0,11.79,5.99,6.25,0,*47
1528891695.99,14578,21.75,73440.5,11.79,5.81,6.03,0,*45
1528891697.19,14579,21.75,73436.5,11.79,5.29,5.33,0,*46
1528891698.43,14580,21.75,73436.3,11.75,5.33,5.51,0,*43
1528891699.65,14581,21.75,73434.5,11.73,4.71,4.57,0,*44
1528891700.91,14582,21.75,73436.3,11.71,4.63,4.75,0,*46
1528891702.11,14583,21.75,73438.0,11.69,5.27,5.45,0,*4D
1528891703.32,14584,21.75,73436.8,11.69,5.67,5.77,0,*4F
1528891704.51,14585,21.75,73436.3,11.65,4.11,4.33,0,*43
1528891705.73,14586,21.75,73438.0,11.65,4.93,5.11,0,*4B
1528891706.93,14587,21.75,73436.5,11.61,5.23,5.45,0,*45
1528891708.2,14588,21.75,73436.0,11.61,4.79,5.01,0,*44
1528891709.38,14589,21.75,73436.8,11.59,5.07,5.15,0,*43
1528891710.61,14590,21.75,73440.0,11.57,4.49,4.71,0,*4D
1528891711.85,14591,21.75,73436.0,11.53,4.67,4.57,0,*40
1528891713.05,14592,21.75,73440.5,11.51,4.01,4.11,0,*43
1528891714.28,14593,21.75,73434.8,11.49,3.81,3.97,0,*4D
1528891715.5,14594,21.75,73434.8,11.47,4.31,4.37,0,*45
1528891716.71,14595,21.75,73432.5,11.43,4.57,4.59,0,*48
1528891717.92,14596,21.75,73434.0,11.41,4.15,4.15,0,*47
1528891719.11,14597,21.75,73438.3,11.39,4.33,4.41,0,*4C
1528891720.36,14598,21.75,73434.0,11.39,4.05,4.05,0,*46
1528891721.6,14599,21.75,73432.5,11.37,4.81,4.75,0,*42
1528891722.8,14600,21.75,73436.8,11.35,4.37,4.53,0,*4A